Simultaneous Nadir Overpasses (SNOs) Predictions

Prediction of SNOs between METOP-B and TERRA Satellite Orbit:

Table of predicted SNOs for the next 14.0 days since TLE Epoch: 11/30/2019
Index Date (METOP-B) Time (METOP-B) Lat,Lon (METOP-B) SZA (METOP-B ) Date (TERRA) Time (TERRA) Lat,Lon (TERRA) SZA (TERRA ) Distance(km) Time Diff (sec)
1 12/02/2019 08:24:55 81.28, 100.72 106.11 12/02/2019 08:25:31 81.28, 100.60 106.12 2.06 36
2 12/02/2019 09:15:35 -81.29, -91.73 73.86 12/02/2019 09:14:58 -81.28, -91.85 73.90 2.12 37
3 12/05/2019 03:59:19 81.29, 167.27 106.49 12/05/2019 03:59:46 81.29, 167.07 106.48 3.27 27
4 12/05/2019 04:49:59 -81.29, -25.17 73.49 12/05/2019 04:49:13 -81.28, -25.35 73.53 3.11 46
5 12/07/2019 23:33:43 81.28,-126.60 106.76 12/07/2019 23:34:00 81.29,-126.50 106.78 1.78 17
6 12/08/2019 00:24:23 -81.28, 40.97 73.22 12/08/2019 00:23:27 -81.28, 41.09 73.23 1.99 56
7 12/10/2019 19:08:07 81.28, -60.09 107.01 12/10/2019 19:08:15 81.28, -60.12 107.01 0.39 8
8 12/10/2019 19:58:47 -81.29, 107.49 72.96 12/10/2019 19:57:42 -81.28, 107.49 73.00 0.57 65
9 12/13/2019 13:51:51 -81.28,-161.30 72.85 12/13/2019 13:53:04 -81.27,-161.46 72.84 2.70 73
10 12/13/2019 14:42:31 81.28, 6.39 107.20 12/13/2019 14:42:30 81.28, 6.22 107.18 2.99 1




NCC Satellite Simultaneous Nadir Overpasses (SNOs) Prediction Service
